When you browse on this site, cookies collect data to enhance your experience and personalize the content and advertising you see.
Visit our Privacy Policy to learn more. By continuing to use the site, you agree to this use of cookies and data.
  • In United Kingdom
  • List of Countries
  • For 7 days
  • Water Temperature
  • Satellite Maps
  • Weather Map
  • Weather Widgets
  • user-avatar
    Login

    Hourly Weather Shumanay

    Today, 20 June, Thursday

    Time Temperature Precipitation Wind Pressure Humidity
    00:00 +23°C° 0 mm 4 mps 750 mmHg 33%
    01:00 +22°C° 0 mm 3 mps 750 mmHg 37%
    02:00 +22°C° 0 mm 3 mps 750 mmHg 39%
    03:00 +22°C° 0 mm 3 mps 750 mmHg 41%
    04:00 +22°C° 0 mm 3 mps 750 mmHg 42%
    05:00 +24°C° 0 mm 3 mps 750 mmHg 39%
    06:00 +26°C° 0 mm 3 mps 750 mmHg 36%
    07:00 +27°C° 0 mm 3 mps 750 mmHg 33%
    08:00 +30°C° 0 mm 3 mps 750 mmHg 27%
    09:00 +32°C° 0 mm 2 mps 750 mmHg 21%
    10:00 +35°C° 0 mm 1 mps 751 mmHg 14%
    11:00 +36°C° 0 mm 1 mps 750 mmHg 13%
    12:00 +37°C° 0 mm 1 mps 750 mmHg 11%
    13:00 +36°C° 0 mm 0 mps 750 mmHg 10%
    14:00 +39°C° 0 mm 1 mps 749 mmHg 9%
    15:00 +40°C° 0 mm 1 mps 749 mmHg 9%
    16:00 +40°C° 0 mm 1 mps 749 mmHg 8%
    17:00 +39°C° 0 mm 2 mps 749 mmHg 9%
    18:00 +38°C° 0 mm 4 mps 749 mmHg 11%
    19:00 +36°C° 0 mm 5 mps 749 mmHg 12%
    20:00 +35°C° 0 mm 5 mps 749 mmHg 13%
    21:00 +33°C° 0 mm 5 mps 749 mmHg 15%
    22:00 +30°C° 0 mm 6 mps 749 mmHg 17%
    23:00 +29°C° 0 mm 5 mps 749 mmHg 19%

    Tomorrow, 21 June, Friday

    Time Temperature Precipitation Wind Pressure Humidity
    00:00 +28°C° 0 mm 5 mps 749 mmHg 20%
    01:00 +27°C° 0 mm 5 mps 749 mmHg 22%
    02:00 +27°C° 0 mm 4 mps 749 mmHg 23%
    03:00 +26°C° 0 mm 4 mps 749 mmHg 23%
    04:00 +26°C° 0 mm 4 mps 749 mmHg 23%
    05:00 +28°C° 0 mm 4 mps 749 mmHg 21%
    06:00 +30°C° 0 mm 5 mps 749 mmHg 19%
    07:00 +33°C° 0 mm 5 mps 749 mmHg 17%
    08:00 +35°C° 0 mm 5 mps 749 mmHg 14%
    09:00 +37°C° 0 mm 4 mps 750 mmHg 11%
    10:00 +40°C° 0 mm 4 mps 750 mmHg 8%
    11:00 +41°C° 0 mm 4 mps 750 mmHg 8%
    12:00 +42°C° 0 mm 4 mps 749 mmHg 8%
    13:00 +42°C° 0 mm 5 mps 749 mmHg 7%
    14:00 +42°C° 0 mm 5 mps 749 mmHg 8%
    15:00 +42°C° 0 mm 6 mps 749 mmHg 8%
    16:00 +43°C° 0 mm 7 mps 749 mmHg 8%
    17:00 +41°C° 0 mm 7 mps 749 mmHg 10%
    18:00 +39°C° 0 mm 8 mps 749 mmHg 11%
    19:00 +37°C° 0 mm 8 mps 749 mmHg 13%
    20:00 +35°C° 0 mm 7 mps 749 mmHg 14%
    21:00 +34°C° 0 mm 6 mps 750 mmHg 16%
    22:00 +32°C° 0 mm 5 mps 750 mmHg 17%
    23:00 +30°C° 0 mm 4 mps 750 mmHg 18%

    Day after tomorrow, 22 June, Saturday

    Time Temperature Precipitation Wind Pressure Humidity
    00:00 +30°C° 0 mm 4 mps 750 mmHg 18%
    01:00 +29°C° 0 mm 3 mps 750 mmHg 19%
    02:00 +28°C° 0 mm 3 mps 750 mmHg 20%
    03:00 +28°C° 0 mm 3 mps 751 mmHg 21%
    04:00 +27°C° 0 mm 3 mps 751 mmHg 21%
    05:00 +29°C° 0 mm 4 mps 751 mmHg 19%
    06:00 +32°C° 0 mm 4 mps 752 mmHg 17%
    07:00 +34°C° 0 mm 5 mps 752 mmHg 15%
    08:00 +36°C° 0 mm 5 mps 752 mmHg 14%
    09:00 +38°C° 0 mm 4 mps 753 mmHg 12%
    10:00 +40°C° 0 mm 4 mps 753 mmHg 11%
    11:00 +41°C° 0 mm 4 mps 753 mmHg 10%
    12:00 +42°C° 0 mm 3 mps 753 mmHg 10%
    13:00 +42°C° 0 mm 3 mps 753 mmHg 10%
    14:00 +42°C° 0 mm 3 mps 752 mmHg 10%
    15:00 +43°C° 0 mm 4 mps 752 mmHg 10%
    16:00 +43°C° 0 mm 4 mps 752 mmHg 10%
    17:00 +41°C° 0 mm 5 mps 752 mmHg 11%
    18:00 +40°C° 0 mm 6 mps 752 mmHg 12%
    19:00 +39°C° 0 mm 7 mps 752 mmHg 14%
    20:00 +36°C° 0 mm 6 mps 753 mmHg 16%
    21:00 +34°C° 0 mm 5 mps 753 mmHg 17%
    22:00 +32°C° 0 mm 4 mps 753 mmHg 19%
    23:00 +30°C° 0 mm 4 mps 753 mmHg 22%

    23 June, Sunday

    Time Temperature Precipitation Wind Pressure Humidity
    00:00 +29°C° 0 mm 4 mps 753 mmHg 24%
    01:00 +28°C° 0 mm 4 mps 753 mmHg 27%
    02:00 +27°C° 0 mm 4 mps 753 mmHg 30%
    03:00 +27°C° 0 mm 4 mps 753 mmHg 33%
    04:00 +26°C° 0 mm 4 mps 753 mmHg 36%
    05:00 +28°C° 0 mm 4 mps 754 mmHg 33%
    06:00 +29°C° 0 mm 4 mps 754 mmHg 31%
    07:00 +32°C° 0 mm 4 mps 754 mmHg 28%
    08:00 +34°C° 0 mm 4 mps 755 mmHg 23%
    09:00 +37°C° 0 mm 5 mps 755 mmHg 18%
    10:00 +40°C° 0 mm 5 mps 755 mmHg 13%
    11:00 +41°C° 0 mm 5 mps 755 mmHg 12%
    12:00 +42°C° 0 mm 5 mps 755 mmHg 11%
    13:00 +42°C° 0 mm 5 mps 755 mmHg 10%
    14:00 +42°C° 0 mm 6 mps 755 mmHg 10%
    15:00 +43°C° 0 mm 7 mps 755 mmHg 11%
    16:00 +43°C° 0 mm 8 mps 754 mmHg 11%
    17:00 +40°C° 0 mm 8 mps 755 mmHg 13%
    18:00 +38°C° 0 mm 9 mps 755 mmHg 15%
    19:00 +35°C° 0 mm 9 mps 755 mmHg 18%
    20:00 +33°C° 0 mm 8 mps 755 mmHg 22%
    21:00 +30°C° 0 mm 7 mps 755 mmHg 27%
    22:00 +28°C° 0 mm 6 mps 755 mmHg 32%
    23:00 +27°C° 0 mm 6 mps 755 mmHg 33%

    24 June, Monday

    Time Temperature Precipitation Wind Pressure Humidity
    00:00 +26°C° 0 mm 5 mps 755 mmHg 35%
    01:00 +25°C° 0 mm 4 mps 755 mmHg 37%
    02:00 +25°C° 0 mm 4 mps 755 mmHg 36%
    03:00 +25°C° 0 mm 3 mps 755 mmHg 35%
    04:00 +25°C° 0 mm 3 mps 755 mmHg 34%
    05:00 +27°C° 0 mm 4 mps 755 mmHg 29%
    06:00 +29°C° 0 mm 4 mps 755 mmHg 23%
    07:00 +33°C° 0 mm 5 mps 755 mmHg 18%
    08:00 +34°C° 0 mm 5 mps 755 mmHg 16%
    09:00 +36°C° 0 mm 5 mps 755 mmHg 14%
    10:00 +39°C° 0 mm 5 mps 755 mmHg 12%
    11:00 +40°C° 0 mm 5 mps 755 mmHg 11%
    12:00 +40°C° 0 mm 5 mps 755 mmHg 10%
    13:00 +41°C° 0 mm 5 mps 755 mmHg 8%
    14:00 +41°C° 0 mm 6 mps 754 mmHg 8%
    15:00 +41°C° 0 mm 7 mps 754 mmHg 8%
    16:00 +41°C° 0 mm 7 mps 754 mmHg 8%
    17:00 +39°C° 0 mm 7 mps 754 mmHg 10%
    18:00 +36°C° 0 mm 7 mps 754 mmHg 12%
    19:00 +34°C° 0 mm 8 mps 754 mmHg 14%
    20:00 +32°C° 0 mm 7 mps 754 mmHg 16%
    21:00 +29°C° 0 mm 6 mps 754 mmHg 19%
    22:00 +27°C° 0 mm 6 mps 754 mmHg 22%
    23:00 +27°C° 0 mm 5 mps 754 mmHg 23%

    25 June, Tuesday

    Time Temperature Precipitation Wind Pressure Humidity
    00:00 +26°C° 0 mm 5 mps 754 mmHg 25%
    01:00 +25°C° 0 mm 4 mps 754 mmHg 27%
    02:00 +25°C° 0 mm 4 mps 754 mmHg 28%
    03:00 +25°C° 0 mm 4 mps 753 mmHg 28%
    04:00 +24°C° 0 mm 3 mps 753 mmHg 29%
    05:00 +27°C° 0 mm 3 mps 754 mmHg 26%
    06:00 +29°C° 0 mm 4 mps 754 mmHg 22%
    07:00 +32°C° 0 mm 4 mps 754 mmHg 18%
    08:00 +34°C° 0 mm 4 mps 754 mmHg 16%
    09:00 +36°C° 0 mm 4 mps 754 mmHg 14%
    10:00 +38°C° 0 mm 4 mps 754 mmHg 11%
    11:00 +40°C° 0 mm 4 mps 753 mmHg 10%
    12:00 +41°C° 0 mm 4 mps 753 mmHg 9%
    13:00 +42°C° 0 mm 4 mps 753 mmHg 8%
    14:00 +42°C° 0 mm 4 mps 752 mmHg 8%
    15:00 +42°C° 0 mm 4 mps 752 mmHg 8%
    16:00 +43°C° 0 mm 4 mps 751 mmHg 8%
    17:00 +41°C° 0 mm 4 mps 751 mmHg 10%
    18:00 +40°C° 0 mm 5 mps 751 mmHg 12%
    19:00 +38°C° 0 mm 6 mps 751 mmHg 14%
    20:00 +35°C° 0 mm 5 mps 751 mmHg 17%
    21:00 +33°C° 0 mm 5 mps 751 mmHg 19%
    22:00 +30°C° 0 mm 4 mps 751 mmHg 22%
    23:00 +29°C° 0 mm 4 mps 751 mmHg 23%
    Show more